Location: Franklinton
(36.1018°N, 78.4581°W)
Time: 00:40:19
(UTC-04:00)

Tiangong 2 - Visible Passes

Search period start: 26 April 2019 00:00
Search period end: 06 May 2019 00:00
Orbit: 378 x 390 km, 42.8° (Epoch: 25 April)

Date Brightness Start Highest point End Pass type
(mag) Time Alt. Az. Time Alt. Az. Time Alt. Az.
30 Apr 3.2 05:36:29 10° S 05:38:50 19° SE 05:41:12 10° E visible
02 May 2.1 05:13:58 19° SSW 05:15:42 36° SSE 05:18:39 10° ENE visible
03 May 3.4 04:16:51 17° ESE 04:16:51 17° ESE 04:18:19 10° E visible
03 May 1.3 05:49:21 10° WSW 05:52:29 63° NNW 05:55:38 10° ENE visible
04 May 1.1 04:51:52 47° SW 04:52:37 71° SSE 04:55:46 10° ENE visible
05 May 3.6 03:54:38 18° E 03:54:38 18° E 03:55:45 10° E visible
05 May 2.1 05:26:49 12° W 05:29:31 40° NNW 05:32:32 10° NE visible
